Estación de Maule

Ultimos registro cada 15 minutos 56
Estación Fecha / Hora Temperatura Humedad Lluvia Velocidad Dirección Radiación Presion
56 Maule 09-05-2026 13:45 16,5 52 0 1,8 219 555 1017,6
55 Maule 09-05-2026 13:30 16,2 53 0 3,6 208 570 1017,8
54 Maule 09-05-2026 13:15 16,1 54 0 0,9 190 582 1018
53 Maule 09-05-2026 13:00 15,8 54 0 1,8 165 589 1018,1
52 Maule 09-05-2026 12:45 15,6 52 0 3,1 199 594 1018,3
51 Maule 09-05-2026 12:30 15,3 56 0 1,8 174 594 1018,5
50 Maule 09-05-2026 12:15 15 55 0 2,7 185 591 1018,6
49 Maule 09-05-2026 12:00 14,1 58 0 2,2 190 584 1019
48 Maule 09-05-2026 11:45 13,6 60 0 1,8 202 573 1019,2
47 Maule 09-05-2026 11:30 13,1 64 0 1,3 167 559 1019,3
46 Maule 09-05-2026 11:15 12,4 67 0 2,7 158 540 1019,4
45 Maule 09-05-2026 11:00 11,7 69 0 0,9 195 515 1019,5
44 Maule 09-05-2026 10:45 10,8 73 0 1,8 164 490 1019,5
43 Maule 09-05-2026 10:30 10,3 74 0 2,2 195 461 1019,6
42 Maule 09-05-2026 10:15 9,5 76 0 2,2 170 431 1019,6
41 Maule 09-05-2026 10:00 8,8 78 0 0,4 216 394 1019,8
40 Maule 09-05-2026 09:45 8,2 80 0 1,3 208 357 1019,6
39 Maule 09-05-2026 09:30 7,4 84 0 2,7 185 315 1019,5
38 Maule 09-05-2026 09:15 6,8 86 0 1,8 161 278 1020
37 Maule 09-05-2026 09:00 6,3 87 0 1,8 195 237 1019,9
36 Maule 09-05-2026 08:45 5,8 88 0 2,2 178 144 1019,9
35 Maule 09-05-2026 08:30 5,3 90 0 1,3 168 107 1019,9
34 Maule 09-05-2026 08:15 4,8 92 0,2 1,8 173 91 1020
33 Maule 09-05-2026 08:00 4,3 92 0 0,9 179 40 1020,1
32 Maule 09-05-2026 07:45 4,1 92 0 1,8 173 14 1020
31 Maule 09-05-2026 07:30 4,2 93 0 1,3 190 5 1020,1
30 Maule 09-05-2026 07:15 4,1 93 0 0,9 179 0 1020,2
29 Maule 09-05-2026 07:00 4,2 92 0 0,9 158 0 1020,4
28 Maule 09-05-2026 06:45 4,4 92 0 1,3 185 0 1020,3
27 Maule 09-05-2026 06:30 4,7 93 0 0 190 0 1020,4
26 Maule 09-05-2026 06:15 4,8 93 0 0,4 185 0 1020,4
25 Maule 09-05-2026 06:00 5 93 0 2,7 174 0 1020,6
24 Maule 09-05-2026 05:45 5,1 93 0 1,8 185 0 1020,4
23 Maule 09-05-2026 05:30 5,3 93 0 0,4 175 0 1020,6
22 Maule 09-05-2026 05:15 5,6 93 0 1,3 185 0 1020,3
21 Maule 09-05-2026 05:00 5,7 94 0 1,3 174 0 1020,5
20 Maule 09-05-2026 04:45 5,8 94 0 0 185 0 1020,4
19 Maule 09-05-2026 04:30 6,1 93 0 0,9 160 0 1020,5
18 Maule 09-05-2026 04:15 6,3 93 0 0,9 169 0 1020,6
17 Maule 09-05-2026 04:00 6,6 92 0 0,9 173 0 1020,7
16 Maule 09-05-2026 03:45 6,9 92 0 0 185 0 1020,8
15 Maule 09-05-2026 03:30 7,2 92 0 0,9 172 0 1021
14 Maule 09-05-2026 03:15 7,4 92 0 0,4 177 0 1021
13 Maule 09-05-2026 03:00 7,8 92 0 2,2 190 0 1021
12 Maule 09-05-2026 02:45 8,1 91 0 2,7 163 0 1021,2
11 Maule 09-05-2026 02:30 8,3 90 0 2,2 175 0 1021,4
10 Maule 09-05-2026 02:15 8,6 91 0 1,8 202 0 1021,3
9 Maule 09-05-2026 02:00 8,7 90 0 0,9 226 0 1021,4
8 Maule 09-05-2026 01:45 8,9 90 0 0,9 190 0 1021,5
7 Maule 09-05-2026 01:30 9,1 90 0 1,3 185 0 1021,5
6 Maule 09-05-2026 01:15 9,2 91 0 2,2 239 0 1021,5
5 Maule 09-05-2026 01:00 9,3 91 0 0,9 181 0 1021,4
4 Maule 09-05-2026 00:45 9,6 91 0 0,4 200 0 1021,4
3 Maule 09-05-2026 00:30 9,6 91 0 1,3 195 0 1021,4
2 Maule 09-05-2026 00:15 9,6 92 0 1,8 190 0 1021,6
1 Maule 09-05-2026 00:00 9,6 92 0 1,8 195 0 1021,5